Location: Pl�tzky
(52.0521°N, 11.8020°E)
Time: 10:40:12
(UTC+00:00)

Geosat - Pass Details

Date: 22 November 2019
Orbit: 763 x 766 km, 108.0° (Epoch: 11 December)

Event Time Altitude Azimuth Distance (km) Brightness Sun altitude
Exits shadow 17:32:46 43° 60° (ENE) 1,076 4.3 -20.9°
Maximum altitude 17:34:13 60° 117° (ESE) 876 4.0 -21.1°
Drops below altitude 10° 17:39:10 10° 198° (SSW) 2,301 6.7 -21.9°
Sets 17:41:28 0° 202° (SSW) 3,223 7.6 -22.2°
